Tracking 19146 objects as of 23-Apr-2018
HD Live streaming from Space Station
objects crossing your sky now

HELLAS SAT 1 (DFS 3)

Track HELLAS SAT 1 (DFS 3) now!
HELLAS SAT 1 (DFS 3) is classified as:


NORAD ID: 22175
Int'l Code: 1992-066A
Perigee: 35,925.2 km
Apogee: 35,967.5 km
Inclination: 12.5 °
Period: 1,443.9 minutes
Semi major axis: 42317 km
RCS: 4.2132 m2 (large)
Launch date: October 12, 1992
Source: Greece (GREC)
Launch site: AIR FORCE EASTERN TEST RANGE (AFETR)
aabbcc
Your satellite tracking list
Your tracking list is empty




NASA's NSSDC Master Catalog

Two Line Element Set (TLE):
1 22175U 92066A   18112.91434784  .00000076  00000-0  00000+0 0  9995
2 22175  12.4618  29.8610 0004992 317.8889 226.1423  0.99729923 90903
Source of the keplerian elements: AFSPC